Year,Month,Day,Hour,Minute,Value (Times are PST for temperature in C)
2015,05,18,00,00,11.70
2015,05,18,00,01,11.60
2015,05,18,00,02,11.60
2015,05,18,00,03,11.60
2015,05,18,00,04,11.60
2015,05,18,00,05,11.60
2015,05,18,00,06,11.60
2015,05,18,00,07,11.60
2015,05,18,00,08,11.60
2015,05,18,00,09,11.60
2015,05,18,00,10,11.60
2015,05,18,00,11,11.60
2015,05,18,00,12,11.60
2015,05,18,00,13,11.50
2015,05,18,00,14,11.50
2015,05,18,00,15,11.50
2015,05,18,00,16,11.50
2015,05,18,00,17,11.50
2015,05,18,00,18,11.40
2015,05,18,00,19,11.40
2015,05,18,00,20,11.40
2015,05,18,00,21,11.40
2015,05,18,00,22,11.40
2015,05,18,00,23,11.40
2015,05,18,00,24,11.40
2015,05,18,00,25,11.40
2015,05,18,00,26,11.40
2015,05,18,00,27,11.40
2015,05,18,00,28,11.40
2015,05,18,00,29,11.40
2015,05,18,00,30,11.40
2015,05,18,00,31,11.40
2015,05,18,00,32,11.40
2015,05,18,00,33,11.40
2015,05,18,00,34,11.40
2015,05,18,00,35,11.40
2015,05,18,00,36,11.30
2015,05,18,00,37,11.30
2015,05,18,00,38,11.30
2015,05,18,00,39,11.30
2015,05,18,00,40,11.30
2015,05,18,00,41,11.30
2015,05,18,00,42,11.30
2015,05,18,00,43,11.30
2015,05,18,00,44,11.30
2015,05,18,00,45,11.30
2015,05,18,00,46,11.30
2015,05,18,00,47,11.30
2015,05,18,00,48,11.30
2015,05,18,00,49,11.30
2015,05,18,00,50,11.30
2015,05,18,00,51,11.30
2015,05,18,00,52,11.30
2015,05,18,00,53,11.30
2015,05,18,00,54,11.30
2015,05,18,00,55,11.30
2015,05,18,00,56,11.30
2015,05,18,00,57,11.30
2015,05,18,00,58,11.30
2015,05,18,00,59,11.20
2015,05,18,01,00,11.20
2015,05,18,01,01,11.20
2015,05,18,01,02,11.20
2015,05,18,01,03,11.20
2015,05,18,01,04,11.20
2015,05,18,01,05,11.20
2015,05,18,01,06,11.20
2015,05,18,01,07,11.20
2015,05,18,01,08,11.10
2015,05,18,01,09,11.10
2015,05,18,01,10,11.10
2015,05,18,01,11,11.10
2015,05,18,01,12,11.10
2015,05,18,01,13,11.10
2015,05,18,01,14,11.00
2015,05,18,01,15,11.00
2015,05,18,01,16,11.00
2015,05,18,01,17,11.00
2015,05,18,01,18,11.00
2015,05,18,01,19,10.90
2015,05,18,01,20,10.90
2015,05,18,01,21,10.90
2015,05,18,01,22,10.90
2015,05,18,01,23,10.90
2015,05,18,01,24,10.90
2015,05,18,01,25,10.80
2015,05,18,01,26,10.80
2015,05,18,01,27,10.80
2015,05,18,01,28,10.80
2015,05,18,01,29,10.80
2015,05,18,01,30,10.80
2015,05,18,01,31,10.70
2015,05,18,01,32,10.70
2015,05,18,01,33,10.70
2015,05,18,01,34,10.70
2015,05,18,01,35,10.70
2015,05,18,01,36,10.60
2015,05,18,01,37,10.60
2015,05,18,01,38,10.60
2015,05,18,01,39,10.60
2015,05,18,01,40,10.60
2015,05,18,01,41,10.60
2015,05,18,01,42,10.60
2015,05,18,01,43,10.50
2015,05,18,01,44,10.50
2015,05,18,01,45,10.50
2015,05,18,01,46,10.50
2015,05,18,01,47,10.50
2015,05,18,01,48,10.50
2015,05,18,01,49,10.50
2015,05,18,01,50,10.50
2015,05,18,01,51,10.50
2015,05,18,01,52,10.50
2015,05,18,01,53,10.40
2015,05,18,01,54,10.40
2015,05,18,01,55,10.40
2015,05,18,01,56,10.40
2015,05,18,01,57,10.40
2015,05,18,01,58,10.40
2015,05,18,01,59,10.40
2015,05,18,02,00,10.40
2015,05,18,02,01,10.40
2015,05,18,02,02,10.40
2015,05,18,02,03,10.40
2015,05,18,02,04,10.40
2015,05,18,02,05,10.40
2015,05,18,02,06,10.40
2015,05,18,02,07,10.40
2015,05,18,02,08,10.40
2015,05,18,02,09,10.40
2015,05,18,02,10,10.40
2015,05,18,02,11,10.40
2015,05,18,02,12,10.40
2015,05,18,02,13,10.40
2015,05,18,02,14,10.40
2015,05,18,02,15,10.40
2015,05,18,02,16,10.40
2015,05,18,02,17,10.40
2015,05,18,02,18,10.30
2015,05,18,02,19,10.30
2015,05,18,02,20,10.30
2015,05,18,02,21,10.30
2015,05,18,02,22,10.30
2015,05,18,02,23,10.30
2015,05,18,02,24,10.30
2015,05,18,02,25,10.30
2015,05,18,02,26,10.40
2015,05,18,02,27,10.40
2015,05,18,02,28,10.40
2015,05,18,02,29,10.40
2015,05,18,02,30,10.40
2015,05,18,02,31,10.40
2015,05,18,02,32,10.40
2015,05,18,02,33,10.50
2015,05,18,02,34,10.50
2015,05,18,02,35,10.60
2015,05,18,02,36,10.60
2015,05,18,02,37,10.60
2015,05,18,02,38,10.60
2015,05,18,02,39,10.60
2015,05,18,02,40,10.60
2015,05,18,02,41,10.60
2015,05,18,02,42,10.60
2015,05,18,02,43,10.60
2015,05,18,02,44,10.60
2015,05,18,02,45,10.60
2015,05,18,02,46,10.60
2015,05,18,02,47,10.60
2015,05,18,02,48,10.60
2015,05,18,02,49,10.60
2015,05,18,02,50,10.60
2015,05,18,02,51,10.60
2015,05,18,02,52,10.60
2015,05,18,02,53,10.60
2015,05,18,02,54,10.60
2015,05,18,02,55,10.50
2015,05,18,02,56,10.50
2015,05,18,02,57,10.50
2015,05,18,02,58,10.50
2015,05,18,02,59,10.40
2015,05,18,03,00,10.40
2015,05,18,03,01,10.40
2015,05,18,03,02,10.40
2015,05,18,03,03,10.40
2015,05,18,03,04,10.40
2015,05,18,03,05,10.30
2015,05,18,03,06,10.30
2015,05,18,03,07,10.30
2015,05,18,03,08,10.30
2015,05,18,03,09,10.30
2015,05,18,03,10,10.30
2015,05,18,03,11,10.30
2015,05,18,03,12,10.30
2015,05,18,03,13,10.30
2015,05,18,03,14,10.30
2015,05,18,03,15,10.30
2015,05,18,03,16,10.30
2015,05,18,03,17,10.20
2015,05,18,03,18,10.20
2015,05,18,03,19,10.20
2015,05,18,03,20,10.20
2015,05,18,03,21,10.20
2015,05,18,03,22,10.20
2015,05,18,03,23,10.20
2015,05,18,03,24,10.20
2015,05,18,03,25,10.10
2015,05,18,03,26,10.10
2015,05,18,03,27,10.10
2015,05,18,03,28,10.10
2015,05,18,03,29,10.10
2015,05,18,03,30,10.10
2015,05,18,03,31,10.10
2015,05,18,03,32,10.00
2015,05,18,03,33,10.00
2015,05,18,03,34,10.00
2015,05,18,03,35,10.00
2015,05,18,03,36,9.90
2015,05,18,03,37,9.90
2015,05,18,03,38,9.90
2015,05,18,03,39,9.90
2015,05,18,03,40,9.90
2015,05,18,03,41,9.90
2015,05,18,03,42,9.90
2015,05,18,03,43,9.90
2015,05,18,03,44,9.90
2015,05,18,03,45,9.90
2015,05,18,03,46,9.80
2015,05,18,03,47,9.80
2015,05,18,03,48,9.80
2015,05,18,03,49,9.80
2015,05,18,03,50,9.80
2015,05,18,03,51,9.80
2015,05,18,03,52,9.80
2015,05,18,03,53,9.80
2015,05,18,03,54,9.80
2015,05,18,03,55,9.80
2015,05,18,03,56,9.80
2015,05,18,03,57,9.80
2015,05,18,03,58,9.80
2015,05,18,03,59,9.70
2015,05,18,04,00,9.70
2015,05,18,04,01,9.70
2015,05,18,04,02,9.70
2015,05,18,04,03,9.70
2015,05,18,04,04,9.70
2015,05,18,04,05,9.70
2015,05,18,04,06,9.70
2015,05,18,04,07,9.70
2015,05,18,04,08,9.70
2015,05,18,04,09,9.80
2015,05,18,04,10,9.80
2015,05,18,04,11,9.80
2015,05,18,04,12,9.80
2015,05,18,04,13,9.80
2015,05,18,04,14,9.80
2015,05,18,04,15,9.80
2015,05,18,04,16,9.80
2015,05,18,04,17,9.80
2015,05,18,04,18,9.80
2015,05,18,04,19,9.80
2015,05,18,04,20,9.80
2015,05,18,04,21,9.90
2015,05,18,04,22,9.90
2015,05,18,04,23,9.90
2015,05,18,04,24,9.90
2015,05,18,04,25,9.90
2015,05,18,04,26,9.90
2015,05,18,04,27,9.80
2015,05,18,04,28,9.80
2015,05,18,04,29,9.80
2015,05,18,04,30,9.80
2015,05,18,04,31,9.80
2015,05,18,04,32,9.80
2015,05,18,04,33,9.80
2015,05,18,04,34,9.80
2015,05,18,04,35,9.80
2015,05,18,04,36,9.80
2015,05,18,04,37,9.80
2015,05,18,04,38,9.80
2015,05,18,04,39,9.80
2015,05,18,04,40,9.80
2015,05,18,04,41,9.80
2015,05,18,04,42,9.80
2015,05,18,04,43,9.80
2015,05,18,04,44,9.70
2015,05,18,04,45,9.70
2015,05,18,04,46,9.80
2015,05,18,04,47,9.80
2015,05,18,04,48,9.80
2015,05,18,04,49,9.70
2015,05,18,04,50,9.70
2015,05,18,04,51,9.70
2015,05,18,04,52,9.70
2015,05,18,04,53,9.70
2015,05,18,04,54,9.70
2015,05,18,04,55,9.70
2015,05,18,04,56,9.70
2015,05,18,04,57,9.60
2015,05,18,04,58,9.60
2015,05,18,04,59,9.60
2015,05,18,05,00,9.60
2015,05,18,05,01,9.60
2015,05,18,05,02,9.60
2015,05,18,05,03,9.60
2015,05,18,05,04,9.60
2015,05,18,05,05,9.50
2015,05,18,05,06,9.50
2015,05,18,05,07,9.50
2015,05,18,05,08,9.50
2015,05,18,05,09,9.50
2015,05,18,05,10,9.50
2015,05,18,05,11,9.50
2015,05,18,05,12,9.40
2015,05,18,05,13,9.40
2015,05,18,05,14,9.40
2015,05,18,05,15,9.40
2015,05,18,05,16,9.40
2015,05,18,05,17,9.40
2015,05,18,05,18,9.40
2015,05,18,05,19,9.40
2015,05,18,05,20,9.40
2015,05,18,05,21,9.40
2015,05,18,05,22,9.40
2015,05,18,05,23,9.40
2015,05,18,05,24,9.40
2015,05,18,05,25,9.40
2015,05,18,05,26,9.40
2015,05,18,05,27,9.40
2015,05,18,05,28,9.40
2015,05,18,05,29,9.40
2015,05,18,05,30,9.40
2015,05,18,05,31,9.30
2015,05,18,05,32,9.30
2015,05,18,05,33,9.30
2015,05,18,05,34,9.30
2015,05,18,05,35,9.30
2015,05,18,05,36,9.30
2015,05,18,05,37,9.30
2015,05,18,05,38,9.30
2015,05,18,05,39,9.30
2015,05,18,05,40,9.30
2015,05,18,05,41,9.30
2015,05,18,05,42,9.30
2015,05,18,05,43,9.30
2015,05,18,05,44,9.40
2015,05,18,05,45,9.40
2015,05,18,05,46,9.40
2015,05,18,05,47,9.40
2015,05,18,05,48,9.40
2015,05,18,05,49,9.40
2015,05,18,05,50,9.50
2015,05,18,05,51,9.50
2015,05,18,05,52,9.50
2015,05,18,05,53,9.50
2015,05,18,05,54,9.50
2015,05,18,05,55,9.50
2015,05,18,05,56,9.50
2015,05,18,05,57,9.50
2015,05,18,05,58,9.50
2015,05,18,05,59,9.50
2015,05,18,06,00,9.50
2015,05,18,06,01,9.50
2015,05,18,06,02,9.50
2015,05,18,06,03,9.60
2015,05,18,06,04,9.60
2015,05,18,06,05,9.60
2015,05,18,06,06,9.60
2015,05,18,06,07,9.60
2015,05,18,06,08,9.70
2015,05,18,06,09,9.70
2015,05,18,06,10,9.70
2015,05,18,06,11,9.70
2015,05,18,06,12,9.70
2015,05,18,06,13,9.70
2015,05,18,06,14,9.80
2015,05,18,06,15,9.80
2015,05,18,06,16,9.80
2015,05,18,06,17,9.90
2015,05,18,06,18,9.90
2015,05,18,06,19,10.00
2015,05,18,06,20,10.00
2015,05,18,06,21,10.10
2015,05,18,06,22,10.10
2015,05,18,06,23,10.10
2015,05,18,06,24,10.10
2015,05,18,06,25,10.10
2015,05,18,06,26,10.20
2015,05,18,06,27,10.20
2015,05,18,06,28,10.20
2015,05,18,06,29,10.20
2015,05,18,06,30,10.30
2015,05,18,06,31,10.30
2015,05,18,06,32,10.30
2015,05,18,06,33,10.30
2015,05,18,06,34,10.30
2015,05,18,06,35,10.40
2015,05,18,06,36,10.40
2015,05,18,06,37,10.40
2015,05,18,06,38,10.40
2015,05,18,06,39,10.40
2015,05,18,06,40,10.50
2015,05,18,06,41,10.50
2015,05,18,06,42,10.60
2015,05,18,06,43,10.60
2015,05,18,06,44,10.70
2015,05,18,06,45,10.70
2015,05,18,06,46,10.80
2015,05,18,06,47,10.80
2015,05,18,06,48,10.90
2015,05,18,06,49,10.90
2015,05,18,06,50,10.90
2015,05,18,06,51,11.00
2015,05,18,06,52,11.00
2015,05,18,06,53,11.10
2015,05,18,06,54,11.10
2015,05,18,06,55,11.20
2015,05,18,06,56,11.20
2015,05,18,06,57,11.30
2015,05,18,06,58,11.30
2015,05,18,06,59,11.30
2015,05,18,07,00,11.40
2015,05,18,07,01,11.40
2015,05,18,07,02,11.50
2015,05,18,07,03,11.50
2015,05,18,07,04,11.60
2015,05,18,07,05,11.60
2015,05,18,07,06,11.60
2015,05,18,07,07,11.70
2015,05,18,07,08,11.70
2015,05,18,07,09,11.80
2015,05,18,07,10,11.80
2015,05,18,07,11,11.80
2015,05,18,07,12,11.90
2015,05,18,07,13,12.00
2015,05,18,07,14,12.00
2015,05,18,07,15,12.10
2015,05,18,07,16,12.10
2015,05,18,07,17,12.20
2015,05,18,07,18,12.20
2015,05,18,07,19,12.30
2015,05,18,07,20,12.30
2015,05,18,07,21,12.40
2015,05,18,07,22,12.40
2015,05,18,07,23,12.50
2015,05,18,07,24,12.60
2015,05,18,07,25,12.60
2015,05,18,07,26,12.70
2015,05,18,07,27,12.70
2015,05,18,07,28,12.80
2015,05,18,07,29,12.80
2015,05,18,07,30,12.90
2015,05,18,07,31,12.90
2015,05,18,07,32,13.00
2015,05,18,07,33,13.00
2015,05,18,07,34,13.10
2015,05,18,07,35,13.10
2015,05,18,07,36,13.20
2015,05,18,07,37,13.20
2015,05,18,07,38,13.30
2015,05,18,07,39,13.30
2015,05,18,07,40,13.40
2015,05,18,07,41,13.40
2015,05,18,07,42,13.40
2015,05,18,07,43,13.50
2015,05,18,07,44,13.50
2015,05,18,07,45,13.60
2015,05,18,07,46,13.60
2015,05,18,07,47,13.60
2015,05,18,07,48,13.60
2015,05,18,07,49,13.60
2015,05,18,07,50,13.60
2015,05,18,07,51,13.60
2015,05,18,07,52,13.60
2015,05,18,07,53,13.60
2015,05,18,07,54,13.50
2015,05,18,07,55,13.50
2015,05,18,07,56,13.40
2015,05,18,07,57,13.40
2015,05,18,07,58,13.40
2015,05,18,07,59,13.40
2015,05,18,08,00,13.40
2015,05,18,08,01,13.40
2015,05,18,08,02,13.40
2015,05,18,08,03,13.40
2015,05,18,08,04,13.40
2015,05,18,08,05,13.30
2015,05,18,08,06,13.30
2015,05,18,08,07,13.20
2015,05,18,08,08,13.20
2015,05,18,08,09,13.20
2015,05,18,08,10,13.20
2015,05,18,08,11,13.20
2015,05,18,08,12,13.10
2015,05,18,08,13,13.10
2015,05,18,08,14,13.10
2015,05,18,08,15,13.10
2015,05,18,08,16,13.10
2015,05,18,08,17,13.10
2015,05,18,08,18,13.10
2015,05,18,08,19,13.10
2015,05,18,08,20,13.10
2015,05,18,08,21,13.10
2015,05,18,08,22,13.10
2015,05,18,08,23,13.10
2015,05,18,08,24,13.10
2015,05,18,08,25,13.10
2015,05,18,08,26,13.10
2015,05,18,08,27,13.10
2015,05,18,08,28,13.20
2015,05,18,08,29,13.20
2015,05,18,08,30,13.20
2015,05,18,08,31,13.30
2015,05,18,08,32,13.30
2015,05,18,08,33,13.40
2015,05,18,08,34,13.40
2015,05,18,08,35,13.50
2015,05,18,08,36,13.50
2015,05,18,08,37,13.60
2015,05,18,08,38,13.70
2015,05,18,08,39,13.70
2015,05,18,08,40,13.80
2015,05,18,08,41,13.90
2015,05,18,08,42,13.90
2015,05,18,08,43,14.00
2015,05,18,08,44,14.10
2015,05,18,08,45,14.20
2015,05,18,08,46,14.30
2015,05,18,08,47,14.30
2015,05,18,08,48,14.40
2015,05,18,08,49,14.50
2015,05,18,08,50,14.60
2015,05,18,08,51,14.60
2015,05,18,08,52,14.70
2015,05,18,08,53,14.80
2015,05,18,08,54,14.80
2015,05,18,08,55,14.90
2015,05,18,08,56,14.90
2015,05,18,08,57,15.00
2015,05,18,08,58,15.10
2015,05,18,08,59,15.10
2015,05,18,09,00,15.10
2015,05,18,09,01,15.20
2015,05,18,09,02,15.20
2015,05,18,09,03,15.20
2015,05,18,09,04,15.30
2015,05,18,09,05,15.30
2015,05,18,09,06,15.40
2015,05,18,09,07,15.40
2015,05,18,09,08,15.50
2015,05,18,09,09,15.50
2015,05,18,09,10,15.60
2015,05,18,09,11,15.60
2015,05,18,09,12,15.70
2015,05,18,09,13,15.70
2015,05,18,09,14,15.70
2015,05,18,09,15,15.80
2015,05,18,09,16,15.80
2015,05,18,09,17,15.90
2015,05,18,09,18,15.90
2015,05,18,09,19,16.00
2015,05,18,09,20,16.10
2015,05,18,09,21,16.10
2015,05,18,09,22,16.20
2015,05,18,09,23,16.20
2015,05,18,09,24,16.20
2015,05,18,09,25,16.20
2015,05,18,09,26,16.30
2015,05,18,09,27,16.40
2015,05,18,09,28,16.40
2015,05,18,09,29,16.50
2015,05,18,09,30,16.50
2015,05,18,09,31,16.50
2015,05,18,09,32,16.60
2015,05,18,09,33,16.60
2015,05,18,09,34,16.60
2015,05,18,09,35,16.60
2015,05,18,09,36,16.70
2015,05,18,09,37,16.70
2015,05,18,09,38,16.70
2015,05,18,09,39,16.80
2015,05,18,09,40,16.80
2015,05,18,09,41,16.80
2015,05,18,09,42,16.80
2015,05,18,09,43,16.80
2015,05,18,09,44,16.90
2015,05,18,09,45,16.90
2015,05,18,09,46,16.90
2015,05,18,09,47,16.90
2015,05,18,09,48,16.90
2015,05,18,09,49,16.90
2015,05,18,09,50,16.90
2015,05,18,09,51,16.90
2015,05,18,09,52,16.90
2015,05,18,09,53,16.90
2015,05,18,09,54,16.90
2015,05,18,09,55,16.80
2015,05,18,09,56,16.90
2015,05,18,09,57,16.90
2015,05,18,09,58,16.90
2015,05,18,09,59,16.90
2015,05,18,10,00,17.00
2015,05,18,10,01,17.00
2015,05,18,10,02,17.10
2015,05,18,10,03,17.10
2015,05,18,10,04,17.10
2015,05,18,10,05,17.20
2015,05,18,10,06,17.20
2015,05,18,10,07,17.30
2015,05,18,10,08,17.30
2015,05,18,10,09,17.40
2015,05,18,10,10,17.40
2015,05,18,10,11,17.50
2015,05,18,10,12,17.50
2015,05,18,10,13,17.60
2015,05,18,10,14,17.60
2015,05,18,10,15,17.70
2015,05,18,10,16,17.70
2015,05,18,10,17,17.70
2015,05,18,10,18,17.80
2015,05,18,10,19,17.80
2015,05,18,10,20,17.80
2015,05,18,10,21,17.90
2015,05,18,10,22,18.00
2015,05,18,10,23,18.10
2015,05,18,10,24,18.10
2015,05,18,10,25,18.20
2015,05,18,10,26,18.20
2015,05,18,10,27,18.30
2015,05,18,10,28,18.30
2015,05,18,10,29,18.30
2015,05,18,10,30,18.40
2015,05,18,10,31,18.50
2015,05,18,10,32,18.50
2015,05,18,10,33,18.60
2015,05,18,10,34,18.70
2015,05,18,10,35,18.70
2015,05,18,10,36,18.70
2015,05,18,10,37,18.70
2015,05,18,10,38,18.80
2015,05,18,10,39,18.80
2015,05,18,10,40,18.90
2015,05,18,10,41,18.90
2015,05,18,10,42,19.00
2015,05,18,10,43,19.10
2015,05,18,10,44,19.20
2015,05,18,10,45,19.30
2015,05,18,10,46,19.30
2015,05,18,10,47,19.30
2015,05,18,10,48,19.40
2015,05,18,10,49,19.40
2015,05,18,10,50,19.50
2015,05,18,10,51,19.50
2015,05,18,10,52,19.40
2015,05,18,10,53,19.40
2015,05,18,10,54,19.40
2015,05,18,10,55,19.40
2015,05,18,10,56,19.40
2015,05,18,10,57,19.40
2015,05,18,10,58,19.50
2015,05,18,10,59,19.50
2015,05,18,11,00,19.50
2015,05,18,11,01,19.60
2015,05,18,11,02,19.60
2015,05,18,11,03,19.70
2015,05,18,11,04,19.80
2015,05,18,11,05,19.80
2015,05,18,11,06,19.80
2015,05,18,11,07,19.80
2015,05,18,11,08,19.80
2015,05,18,11,09,19.80
2015,05,18,11,10,19.80
2015,05,18,11,11,19.80
2015,05,18,11,12,19.80
2015,05,18,11,13,19.80
2015,05,18,11,14,19.70
2015,05,18,11,15,19.70
2015,05,18,11,16,19.70
2015,05,18,11,17,19.70
2015,05,18,11,18,19.70
2015,05,18,11,19,19.80
2015,05,18,11,20,19.80
2015,05,18,11,21,19.90
2015,05,18,11,22,20.00
2015,05,18,11,23,20.10
2015,05,18,11,24,20.20
2015,05,18,11,25,20.20
2015,05,18,11,26,20.20
2015,05,18,11,27,20.20
2015,05,18,11,28,20.20
2015,05,18,11,29,20.10
2015,05,18,11,30,20.10
2015,05,18,11,31,20.10
2015,05,18,11,32,20.10
2015,05,18,11,33,20.10
2015,05,18,11,34,20.10
2015,05,18,11,35,20.00
2015,05,18,11,36,19.90
2015,05,18,11,37,19.90
2015,05,18,11,38,19.80
2015,05,18,11,39,19.70
2015,05,18,11,40,19.60
2015,05,18,11,41,19.60
2015,05,18,11,42,19.70
2015,05,18,11,43,19.70
2015,05,18,11,44,19.70
2015,05,18,11,45,19.70
2015,05,18,11,46,19.70
2015,05,18,11,47,19.70
2015,05,18,11,48,19.60
2015,05,18,11,49,19.60
2015,05,18,11,50,19.60
2015,05,18,11,51,19.70
2015,05,18,11,52,19.80
2015,05,18,11,53,19.90
2015,05,18,11,54,19.90
2015,05,18,11,55,20.00
2015,05,18,11,56,20.00
2015,05,18,11,57,19.90
2015,05,18,11,58,19.90
2015,05,18,11,59,19.90
2015,05,18,12,00,19.80
2015,05,18,12,01,19.80
2015,05,18,12,02,19.80
2015,05,18,12,03,19.80
2015,05,18,12,04,19.80
2015,05,18,12,05,19.70
2015,05,18,12,06,19.60
2015,05,18,12,07,19.50
2015,05,18,12,08,19.50
2015,05,18,12,09,19.40
2015,05,18,12,10,19.40
2015,05,18,12,11,19.30
2015,05,18,12,12,19.40
2015,05,18,12,13,19.40
2015,05,18,12,14,19.40
2015,05,18,12,15,19.40
2015,05,18,12,16,19.50
2015,05,18,12,17,19.60
2015,05,18,12,18,19.60
2015,05,18,12,19,19.60
2015,05,18,12,20,19.60
2015,05,18,12,21,19.50
2015,05,18,12,22,19.40
2015,05,18,12,23,19.30
2015,05,18,12,24,19.20
2015,05,18,12,25,19.20
2015,05,18,12,26,19.20
2015,05,18,12,27,19.20
2015,05,18,12,28,19.10
2015,05,18,12,29,19.10
2015,05,18,12,30,19.20
2015,05,18,12,31,19.20
2015,05,18,12,32,19.30
2015,05,18,12,33,19.30
2015,05,18,12,34,19.50
2015,05,18,12,35,19.60
2015,05,18,12,36,19.70
2015,05,18,12,37,19.80
2015,05,18,12,38,19.80
2015,05,18,12,39,19.80
2015,05,18,12,40,19.80
2015,05,18,12,41,19.80
2015,05,18,12,42,19.70
2015,05,18,12,43,19.70
2015,05,18,12,44,19.70
2015,05,18,12,45,19.70
2015,05,18,12,46,19.70
2015,05,18,12,47,19.70
2015,05,18,12,48,19.70
2015,05,18,12,49,19.70
2015,05,18,12,50,19.80
2015,05,18,12,51,19.90
2015,05,18,12,52,20.00
2015,05,18,12,53,20.10
2015,05,18,12,54,20.20
2015,05,18,12,55,20.40
2015,05,18,12,56,20.50
2015,05,18,12,57,20.60
2015,05,18,12,58,20.70
2015,05,18,12,59,20.80
2015,05,18,13,00,20.80
2015,05,18,13,01,20.80
2015,05,18,13,02,20.80
2015,05,18,13,03,20.90
2015,05,18,13,04,20.90
2015,05,18,13,05,20.90
2015,05,18,13,06,20.90
2015,05,18,13,07,20.80
2015,05,18,13,08,20.70
2015,05,18,13,09,20.60
2015,05,18,13,10,20.50
2015,05,18,13,11,20.40
2015,05,18,13,12,20.40
2015,05,18,13,13,20.40
2015,05,18,13,14,20.40
2015,05,18,13,15,20.40
2015,05,18,13,16,20.40
2015,05,18,13,17,20.40
2015,05,18,13,18,20.40
2015,05,18,13,19,20.40
2015,05,18,13,20,20.50
2015,05,18,13,21,20.50
2015,05,18,13,22,20.60
2015,05,18,13,23,20.60
2015,05,18,13,24,20.60
2015,05,18,13,25,20.60
2015,05,18,13,26,20.60
2015,05,18,13,27,20.70
2015,05,18,13,28,20.70
2015,05,18,13,29,20.80
2015,05,18,13,30,20.90
2015,05,18,13,31,20.90
2015,05,18,13,32,21.00
2015,05,18,13,33,21.00
2015,05,18,13,34,21.10
2015,05,18,13,35,21.20
2015,05,18,13,36,21.30
2015,05,18,13,37,21.30
2015,05,18,13,38,21.40
2015,05,18,13,39,21.40
2015,05,18,13,40,21.40
2015,05,18,13,41,21.40
2015,05,18,13,42,21.40
2015,05,18,13,43,21.30
2015,05,18,13,44,21.30
2015,05,18,13,45,21.30
2015,05,18,13,46,21.30
2015,05,18,13,47,21.20
2015,05,18,13,48,21.20
2015,05,18,13,49,21.20
2015,05,18,13,50,21.20
2015,05,18,13,51,21.20
2015,05,18,13,52,21.30
2015,05,18,13,53,21.30
2015,05,18,13,54,21.30
2015,05,18,13,55,21.30
2015,05,18,13,56,21.30
2015,05,18,13,57,21.20
2015,05,18,13,58,21.10
2015,05,18,13,59,21.00
2015,05,18,14,00,21.00
2015,05,18,14,01,21.00
2015,05,18,14,02,21.10
2015,05,18,14,03,21.20
2015,05,18,14,04,21.20
2015,05,18,14,05,21.30
2015,05,18,14,06,21.40
2015,05,18,14,07,21.50
2015,05,18,14,08,21.60
2015,05,18,14,09,21.60
2015,05,18,14,10,21.70
2015,05,18,14,11,21.70
2015,05,18,14,12,21.80
2015,05,18,14,13,22.00
2015,05,18,14,14,22.10
2015,05,18,14,15,22.20
2015,05,18,14,16,22.30
2015,05,18,14,17,22.30
2015,05,18,14,18,22.30
2015,05,18,14,19,22.20
2015,05,18,14,20,22.20
2015,05,18,14,21,22.20
2015,05,18,14,22,22.10
2015,05,18,14,23,22.10
2015,05,18,14,24,22.10
2015,05,18,14,25,22.20
2015,05,18,14,26,22.20
2015,05,18,14,27,22.20
2015,05,18,14,28,22.20
2015,05,18,14,29,22.20
2015,05,18,14,30,22.20
2015,05,18,14,31,22.20
2015,05,18,14,32,22.20
2015,05,18,14,33,22.20
2015,05,18,14,34,22.20
2015,05,18,14,35,22.30
2015,05,18,14,36,22.30
2015,05,18,14,37,22.40
2015,05,18,14,38,22.40
2015,05,18,14,39,22.40
2015,05,18,14,40,22.40
2015,05,18,14,41,22.40
2015,05,18,14,42,22.40
2015,05,18,14,43,22.50
2015,05,18,14,44,22.50
2015,05,18,14,45,22.60
2015,05,18,14,46,22.70
2015,05,18,14,47,22.70
2015,05,18,14,48,22.80
2015,05,18,14,49,22.80
2015,05,18,14,50,22.80
2015,05,18,14,51,22.90
2015,05,18,14,52,22.90
2015,05,18,14,53,22.90
2015,05,18,14,54,23.00
2015,05,18,14,55,23.10
2015,05,18,14,56,23.20
2015,05,18,14,57,23.20
2015,05,18,14,58,23.30
2015,05,18,14,59,23.30
2015,05,18,15,00,23.30
2015,05,18,15,01,23.30
2015,05,18,15,02,23.30
2015,05,18,15,03,23.30
2015,05,18,15,04,23.20
2015,05,18,15,05,23.20
2015,05,18,15,06,23.10
2015,05,18,15,07,23.10
2015,05,18,15,08,23.00
2015,05,18,15,09,23.00
2015,05,18,15,10,23.00
2015,05,18,15,11,23.00
2015,05,18,15,12,23.00
2015,05,18,15,13,23.10
2015,05,18,15,14,23.10
2015,05,18,15,15,23.10
2015,05,18,15,16,23.10
2015,05,18,15,17,23.20
2015,05,18,15,18,23.20
2015,05,18,15,19,23.20
2015,05,18,15,20,23.20
2015,05,18,15,21,23.30
2015,05,18,15,22,23.30
2015,05,18,15,23,23.30
2015,05,18,15,24,23.30
2015,05,18,15,25,23.30
2015,05,18,15,26,23.40
2015,05,18,15,27,23.40
2015,05,18,15,28,23.50
2015,05,18,15,29,23.50
2015,05,18,15,30,23.60
2015,05,18,15,31,23.60
2015,05,18,15,32,23.60
2015,05,18,15,33,23.50
2015,05,18,15,34,23.50
2015,05,18,15,35,23.40
2015,05,18,15,36,23.40
2015,05,18,15,37,23.40
2015,05,18,15,38,23.40
2015,05,18,15,39,23.40
2015,05,18,15,40,23.40
2015,05,18,15,41,23.40
2015,05,18,15,42,23.40
2015,05,18,15,43,23.40
2015,05,18,15,44,23.40
2015,05,18,15,45,23.40
2015,05,18,15,46,23.40
2015,05,18,15,47,23.40
2015,05,18,15,48,23.30
2015,05,18,15,49,23.30
2015,05,18,15,50,23.20
2015,05,18,15,51,23.10
2015,05,18,15,52,23.00
2015,05,18,15,53,22.80
2015,05,18,15,54,22.70
2015,05,18,15,55,22.50
2015,05,18,15,56,22.40
2015,05,18,15,57,22.30
2015,05,18,15,58,22.20
2015,05,18,15,59,22.10
2015,05,18,16,00,21.90
2015,05,18,16,01,21.80
2015,05,18,16,02,21.60
2015,05,18,16,03,21.40
2015,05,18,16,04,21.30
2015,05,18,16,05,21.10
2015,05,18,16,06,20.90
2015,05,18,16,07,20.80
2015,05,18,16,08,20.60
2015,05,18,16,09,20.40
2015,05,18,16,10,20.10
2015,05,18,16,11,19.90
2015,05,18,16,12,19.70
2015,05,18,16,13,19.60
2015,05,18,16,14,19.50
2015,05,18,16,15,19.40
2015,05,18,16,16,19.30
2015,05,18,16,17,19.20
2015,05,18,16,18,19.10
2015,05,18,16,19,19.00
2015,05,18,16,20,18.90
2015,05,18,16,21,18.80
2015,05,18,16,22,18.70
2015,05,18,16,23,18.60
2015,05,18,16,24,18.50
2015,05,18,16,25,18.50
2015,05,18,16,26,18.50
2015,05,18,16,27,18.60
2015,05,18,16,28,18.60
2015,05,18,16,29,18.70
2015,05,18,16,30,18.80
2015,05,18,16,31,18.90
2015,05,18,16,32,18.90
2015,05,18,16,33,19.00
2015,05,18,16,34,19.10
2015,05,18,16,35,19.10
2015,05,18,16,36,19.10
2015,05,18,16,37,19.10
2015,05,18,16,38,19.20
2015,05,18,16,39,19.20
2015,05,18,16,40,19.30
2015,05,18,16,41,19.30
2015,05,18,16,42,19.40
2015,05,18,16,43,19.40
2015,05,18,16,44,19.50
2015,05,18,16,45,19.50
2015,05,18,16,46,19.50
2015,05,18,16,47,19.50
2015,05,18,16,48,19.50
2015,05,18,16,49,19.40
2015,05,18,16,50,19.40
2015,05,18,16,51,19.40
2015,05,18,16,52,19.50
2015,05,18,16,53,19.50
2015,05,18,16,54,19.50
2015,05,18,16,55,19.40
2015,05,18,16,56,19.50
2015,05,18,16,57,19.50
2015,05,18,16,58,19.50
2015,05,18,16,59,19.60
2015,05,18,17,00,19.60
2015,05,18,17,01,19.60
2015,05,18,17,02,19.60
2015,05,18,17,03,19.60
2015,05,18,17,04,19.60
2015,05,18,17,05,19.60
2015,05,18,17,06,19.70
2015,05,18,17,07,19.70
2015,05,18,17,08,19.70
2015,05,18,17,09,19.70
2015,05,18,17,10,19.70
2015,05,18,17,11,19.60
2015,05,18,17,12,19.60
2015,05,18,17,13,19.60
2015,05,18,17,14,19.70
2015,05,18,17,15,19.70
2015,05,18,17,16,19.70
2015,05,18,17,17,19.70
2015,05,18,17,18,19.80
2015,05,18,17,19,19.80
2015,05,18,17,20,19.80
2015,05,18,17,21,19.70
2015,05,18,17,22,19.70
2015,05,18,17,23,19.60
2015,05,18,17,24,19.60
2015,05,18,17,25,19.50
2015,05,18,17,26,19.50